Flag for Austria Weather past 2 weeks in Kapfenberg, Styria, Austria

Now
88 °F

Passing clouds.


Feels Like: 88 °F
Forecast: 59 / 75 °F
Wind: 5 mph from North

Location: Zeltweg

Current Time: Jul 7, 2015 at 1:05:55 PM

Latest Report: Jul 7, 2015 at 12:20 PM


Visibility: 19 mi

Pressure: N/A (N/A at 504m altitude)

Humidity: 43%

Dew point: 63 °F

Location of KapfenbergLocation

Historic Weather in Kapfenberg — Graph

°F

Kapfenberg temperature yesterday

Maximum temperature yesterday: 90 °F (at 4:20 PM)
Minimum temperature yesterday: 59 °F (at 4:50 AM)
Average temperature yesterday: 78 °F

Past Weeks' High & Low Weather Summary

 TemperatureHumidityPressure
High91 °F (Jul 5, 4:50 PM)100% (Jun 26, 4:50 AM)30.39 "Hg (Jun 26, 4:50 AM)
Low41 °F (Jun 25, 5:50 AM)20% (Jul 5, 3:50 PM)29.80 "Hg (Jun 23, 4:50 AM)
Average68 °F59%30.16 "Hg
* Reported Jun 22 11:20 AM — Jul 7 11:50 AM, Kapfenberg, Weather by CustomWeather, © 2015

Note: Actual official high and low records may vary slightly from our data, if they occured in-between our weather recording intervals... More about our weather records

Advertising

Kapfenberg weather history for previous 24 hours

 ConditionsComfort  
Time TempWeatherWind HumidityBarometerVisibility
11:50 AM
Tue, Jul 7
88 °FPassing clouds.2 mph43%30.07 "Hg19 mi
11:20 AM86 °FPassing clouds.5 mph43%30.07 "Hg19 mi
10:50 AM86 °FPassing clouds.3 mph43%30.09 "Hg19 mi
10:20 AM84 °FPassing clouds.2 mph48%30.09 "Hg19 mi
9:50 AM79 °FSunny.2 mph54%30.12 "Hg19 mi
9:20 AM77 °FSunny.2 mph57%30.12 "Hg19 mi
8:50 AM73 °FPassing clouds.1 mph65%30.12 "Hg19 mi
8:20 AM72 °FPassing clouds.1 mph65%30.15 "Hg19 mi
7:50 AM70 °FPassing clouds.1 mph69%30.15 "Hg19 mi
7:20 AM68 °FPassing clouds.2 mph73%30.15 "Hg19 mi
6:50 AM66 °FPassing clouds.2 mph78%30.15 "Hg19 mi
5:50 AM61 °FPassing clouds.1 mph88%30.15 "Hg19 mi
10:50 PM
Mon, Jul 6
75 °FPassing clouds.5 mph57%30.15 "Hg19 mi
9:50 PM77 °FScattered clouds.5 mph54%30.15 "Hg19 mi
8:50 PM77 °FPartly sunny.5 mph57%30.15 "Hg19 mi
7:50 PM86 °FScattered clouds.7 mph35%30.12 "Hg19 mi
6:50 PM88 °FScattered clouds.7 mph31%30.12 "Hg25 mi
5:50 PM88 °FScattered clouds.8 mph33%30.12 "Hg25 mi
4:50 PM90 °FScattered clouds.7 mph27%30.12 "Hg25 mi
4:20 PM90 °FScattered clouds.7 mph27%30.15 "Hg25 mi
3:50 PM88 °FPartly sunny.8 mph31%30.15 "Hg25 mi
3:20 PM88 °FBroken clouds.8 mph31%30.15 "Hg25 mi
2:50 PM86 °FBroken clouds.7 mph35%30.15 "Hg25 mi
2:20 PM84 °FBroken clouds.3 mph37%30.15 "Hg25 mi
1:50 PM82 °FBroken clouds.5 mph42%30.15 "Hg25 mi
1:20 PM81 °FBroken clouds.6 mph48%30.15 "Hg25 mi
Weather by CustomWeather, © 2015

See weather overviewHow to use our weather pages